Meteo pe oră la Bolshie Kovali

Astăzi, 12 Mai, Miercuri

Timp Temperatura Precipitaţii Vânt Presiune Umiditate
00:00 +16°C° 0 mm 3 m/s 756 mmHg 83%
01:00 +16°C° 0 mm 3 m/s 756 mmHg 82%
02:00 +15°C° 0 mm 2 m/s 757 mmHg 81%
03:00 +15°C° 0 mm 2 m/s 757 mmHg 80%
04:00 +16°C° 0 mm 2 m/s 757 mmHg 75%
05:00 +16°C° 0 mm 2 m/s 757 mmHg 71%
06:00 +17°C° 0 mm 2 m/s 757 mmHg 67%
07:00 +19°C° 0 mm 2 m/s 757 mmHg 60%
08:00 +21°C° 0 mm 3 m/s 757 mmHg 53%
09:00 +22°C° 0 mm 3 m/s 757 mmHg 46%
10:00 +24°C° 0 mm 3 m/s 757 mmHg 43%
11:00 +25°C° 0 mm 3 m/s 757 mmHg 40%
12:00 +26°C° 0 mm 3 m/s 757 mmHg 37%
13:00 +26°C° 0 mm 3 m/s 757 mmHg 36%
14:00 +27°C° 0 mm 3 m/s 757 mmHg 36%
15:00 +27°C° 0 mm 3 m/s 756 mmHg 35%
16:00 +26°C° 0 mm 3 m/s 756 mmHg 40%
17:00 +25°C° 0 mm 2 m/s 756 mmHg 45%
18:00 +24°C° 0 mm 2 m/s 756 mmHg 51%
19:00 +21°C° 0 mm 2 m/s 756 mmHg 54%
20:00 +20°C° 0 mm 2 m/s 756 mmHg 58%
21:00 +18°C° 0 mm 2 m/s 756 mmHg 61%
22:00 +18°C° 0 mm 2 m/s 756 mmHg 62%
23:00 +18°C° 0 mm 1 m/s 756 mmHg 64%

Mâine, 13 Mai, Joi

Timp Temperatura Precipitaţii Vânt Presiune Umiditate
00:00 +18°C° 0 mm 1 m/s 756 mmHg 65%
01:00 +16°C° 0 mm 1 m/s 756 mmHg 65%
02:00 +16°C° 0 mm 1 m/s 756 mmHg 64%
03:00 +16°C° 0 mm 1 m/s 756 mmHg 64%
04:00 +16°C° 0 mm 2 m/s 756 mmHg 64%
05:00 +17°C° 0 mm 2 m/s 756 mmHg 63%
06:00 +17°C° 0 mm 2 m/s 756 mmHg 63%
07:00 +19°C° 0 mm 3 m/s 756 mmHg 57%
08:00 +20°C° 0 mm 3 m/s 756 mmHg 50%
09:00 +22°C° 0 mm 4 m/s 756 mmHg 44%
10:00 +23°C° 0 mm 5 m/s 756 mmHg 42%
11:00 +25°C° 0 mm 5 m/s 756 mmHg 39%
12:00 +25°C° 0 mm 5 m/s 756 mmHg 37%
13:00 +26°C° 0 mm 5 m/s 755 mmHg 39%
14:00 +26°C° 0 mm 6 m/s 755 mmHg 40%
15:00 +26°C° 0 mm 6 m/s 755 mmHg 42%
16:00 +23°C° 0 mm 5 m/s 755 mmHg 48%
17:00 +22°C° 0 mm 4 m/s 754 mmHg 54%
18:00 +20°C° 0 mm 4 m/s 754 mmHg 61%
19:00 +20°C° 0 mm 4 m/s 754 mmHg 62%
20:00 +19°C° 0 mm 4 m/s 754 mmHg 63%
21:00 +19°C° 0 mm 4 m/s 753 mmHg 65%
22:00 +18°C° 0.1 mm 4 m/s 753 mmHg 67%
23:00 +17°C° 0.1 mm 4 m/s 753 mmHg 70%

Poimâine, 14 Mai, Vineri

Timp Temperatura Precipitaţii Vânt Presiune Umiditate
00:00 +17°C° 0.1 mm 4 m/s 753 mmHg 73%
01:00 +16°C° 0.2 mm 3 m/s 753 mmHg 75%
02:00 +16°C° 0.2 mm 3 m/s 753 mmHg 78%
03:00 +14°C° 0.2 mm 3 m/s 753 mmHg 80%
04:00 +16°C° 0 mm 3 m/s 753 mmHg 77%
05:00 +16°C° 0 mm 3 m/s 753 mmHg 74%
06:00 +17°C° 0 mm 3 m/s 753 mmHg 72%
07:00 +18°C° 0 mm 4 m/s 753 mmHg 67%
08:00 +20°C° 0 mm 4 m/s 753 mmHg 61%
09:00 +22°C° 0 mm 4 m/s 753 mmHg 56%
10:00 +23°C° 0 mm 4 m/s 753 mmHg 54%
11:00 +25°C° 0 mm 5 m/s 753 mmHg 52%
12:00 +26°C° 0 mm 5 m/s 753 mmHg 50%
13:00 +26°C° 0 mm 5 m/s 753 mmHg 49%
14:00 +27°C° 0 mm 5 m/s 753 mmHg 48%
15:00 +27°C° 0 mm 5 m/s 753 mmHg 47%
16:00 +26°C° 0 mm 4 m/s 753 mmHg 50%
17:00 +25°C° 0 mm 4 m/s 752 mmHg 54%
18:00 +24°C° 0 mm 3 m/s 752 mmHg 58%
19:00 +22°C° 0 mm 3 m/s 752 mmHg 59%
20:00 +20°C° 0 mm 3 m/s 752 mmHg 61%
21:00 +19°C° 0 mm 3 m/s 752 mmHg 62%
22:00 +18°C° 0 mm 3 m/s 751 mmHg 63%
23:00 +18°C° 0 mm 3 m/s 751 mmHg 63%

15 Mai, Sâmbătă

Timp Temperatura Precipitaţii Vânt Presiune Umiditate
00:00 +17°C° 0 mm 3 m/s 751 mmHg 64%
01:00 +17°C° 0 mm 3 m/s 751 mmHg 64%
02:00 +16°C° 0 mm 3 m/s 751 mmHg 64%
03:00 +16°C° 0 mm 3 m/s 751 mmHg 65%
04:00 +17°C° 0 mm 3 m/s 751 mmHg 65%
05:00 +17°C° 0 mm 2 m/s 751 mmHg 64%
06:00 +18°C° 0 mm 2 m/s 751 mmHg 64%
07:00 +20°C° 0 mm 3 m/s 751 mmHg 59%
08:00 +21°C° 0 mm 4 m/s 751 mmHg 53%
09:00 +23°C° 0 mm 5 m/s 751 mmHg 48%
10:00 +25°C° 0 mm 5 m/s 751 mmHg 45%
11:00 +26°C° 0 mm 5 m/s 751 mmHg 42%
12:00 +28°C° 0 mm 6 m/s 751 mmHg 40%
13:00 +28°C° 0 mm 6 m/s 751 mmHg 39%
14:00 +28°C° 0 mm 5 m/s 751 mmHg 39%
15:00 +29°C° 0 mm 5 m/s 751 mmHg 39%
16:00 +28°C° 0 mm 5 m/s 751 mmHg 42%
17:00 +26°C° 0 mm 5 m/s 750 mmHg 46%
18:00 +25°C° 0 mm 4 m/s 750 mmHg 49%
19:00 +23°C° 0 mm 4 m/s 750 mmHg 51%
20:00 +21°C° 0 mm 3 m/s 750 mmHg 53%
21:00 +19°C° 0 mm 3 m/s 750 mmHg 55%
22:00 +19°C° 0 mm 3 m/s 750 mmHg 55%
23:00 +18°C° 0 mm 3 m/s 750 mmHg 55%

16 Mai, Duminică

Timp Temperatura Precipitaţii Vânt Presiune Umiditate
00:00 +17°C° 0 mm 3 m/s 750 mmHg 55%
01:00 +17°C° 0 mm 3 m/s 750 mmHg 56%
02:00 +17°C° 0 mm 3 m/s 750 mmHg 56%
03:00 +16°C° 0 mm 3 m/s 750 mmHg 56%
04:00 +17°C° 0 mm 3 m/s 750 mmHg 58%
05:00 +18°C° 0 mm 3 m/s 750 mmHg 60%
06:00 +19°C° 0 mm 3 m/s 750 mmHg 62%
07:00 +21°C° 0 mm 3 m/s 750 mmHg 56%
08:00 +23°C° 0 mm 4 m/s 750 mmHg 51%
09:00 +26°C° 0 mm 5 m/s 750 mmHg 45%
10:00 +27°C° 0 mm 6 m/s 750 mmHg 43%
11:00 +28°C° 0 mm 6 m/s 750 mmHg 41%
12:00 +29°C° 0 mm 6 m/s 750 mmHg 38%
13:00 +29°C° 0 mm 6 m/s 750 mmHg 38%
14:00 +29°C° 0 mm 6 m/s 749 mmHg 38%
15:00 +29°C° 0 mm 6 m/s 749 mmHg 38%
16:00 +28°C° 0 mm 5 m/s 749 mmHg 42%
17:00 +27°C° 0 mm 5 m/s 749 mmHg 46%
18:00 +26°C° 0 mm 4 m/s 749 mmHg 49%
19:00 +23°C° 0 mm 4 m/s 749 mmHg 54%
20:00 +22°C° 0 mm 3 m/s 749 mmHg 59%
21:00 +20°C° 0 mm 2 m/s 749 mmHg 64%
22:00 +19°C° 0 mm 2 m/s 749 mmHg 67%
23:00 +19°C° 0 mm 2 m/s 749 mmHg 71%

17 Mai, Luni

Timp Temperatura Precipitaţii Vânt Presiune Umiditate
00:00 +18°C° 0 mm 2 m/s 749 mmHg 74%
01:00 +18°C° 0 mm 2 m/s 750 mmHg 77%
02:00 +18°C° 0 mm 1 m/s 750 mmHg 81%
03:00 +18°C° 0 mm 1 m/s 750 mmHg 85%
04:00 +19°C° 0 mm 1 m/s 751 mmHg 82%
05:00 +20°C° 0 mm 1 m/s 751 mmHg 78%
06:00 +21°C° 0 mm 1 m/s 751 mmHg 75%
07:00 +22°C° 0 mm 1 m/s 751 mmHg 69%
08:00 +24°C° 0 mm 1 m/s 751 mmHg 63%
09:00 +25°C° 0 mm 2 m/s 751 mmHg 57%
10:00 +26°C° 0 mm 2 m/s 751 mmHg 53%
11:00 +27°C° 0 mm 2 m/s 751 mmHg 49%
12:00 +28°C° 0 mm 2 m/s 751 mmHg 46%
13:00 +28°C° 0 mm 3 m/s 751 mmHg 45%
14:00 +29°C° 0 mm 3 m/s 751 mmHg 45%
15:00 +29°C° 0 mm 3 m/s 750 mmHg 44%
16:00 +28°C° 0 mm 3 m/s 750 mmHg 49%
17:00 +27°C° 0 mm 2 m/s 750 mmHg 54%
18:00 +26°C° 0 mm 2 m/s 750 mmHg 59%
19:00 +24°C° 0.1 mm 2 m/s 750 mmHg 63%
20:00 +21°C° 0.1 mm 2 m/s 750 mmHg 67%
21:00 +19°C° 0.1 mm 2 m/s 751 mmHg 71%
22:00 +18°C° 0 mm 2 m/s 751 mmHg 70%
23:00 +18°C° 0 mm 2 m/s 751 mmHg 70%
Arată mai mult

Formular de consimțământ

Meteoprog și furnizorii noștri de servicii pot stoca și accesa date personale, precum cookies, identificatori de dispozitiv sau alte tehnologii similare pe dispozitivul dumneavoastră și procesa astfel de date pentru a personaliza conținutul și reclamele, dar și pentru a oferi caracteristici de social media și pentru a analiza traficul.

  • Stocarea și/sau accesarea informațiilor pe dispozitivul dumneavoastră

    Cookies, identificatori de dispozitiv sau alte informații pot fi stocate sau accesate pe dispozitiv în scopurile indicate mai sus.

  • Reclame și conținut personalizat, evaluarea reclamelor și a conținutului, informații despre audiențe și dezvoltarea produselor

    Reclamele și conținutul pot fi personalizate pe baza unui profil. Pot fi adăugate date suplimentare pentru a personaliza mai bine reclamele și conținutul. Performanța reclamelor și conținutului poate fi măsurată. Pot fi obținute informații despre utilizatorii care au văzut reclamele și conținutul. Aceste date pot fi utilizate pentru a dezvolta sau îmbunătăți experiența utilizatorilor, sistemele și software-ul.

Dând clic pe ‘Sunt de acord’, permiteți utilizarea cookie-urilor menționate, a identificatorilor de dispozitiv, balizelor web sau altor tehnologii similare. Setările pot fi modificate din browser-ul dispozitivului dumneavoastră.

În anumite scopuri, interesele legitime pot prima asupra consimțământului. Puteți citi mai multe informații în acest sens în Politica privind Confidențialitatea Datelor și Cookie.